Waarnemingen

Advertentie
Mijn weer
Yeovilton, Groot Brittannië (3853): temperatuur & dauwpunt: 17.10.2018 13:00:00 - 23.10.2018 13:00:00 (BST)Yeovilton, Groot Brittannië (3853): temperatuur -20cm & temperatuur -100cm: 17.10.2018 13:00:00 - 23.10.2018 13:00:00 (BST)Yeovilton, Groot Brittannië (3853): windsnelheid & windstoten: 17.10.2018 13:00:00 - 23.10.2018 13:00:00 (BST)Yeovilton, Groot Brittannië (3853): windrichting: 17.10.2018 13:00:00 - 23.10.2018 13:00:00 (BST)Yeovilton, Groot Brittannië (3853): luchtdruk: 17.10.2018 13:00:00 - 23.10.2018 13:00:00 (BST)Yeovilton, Groot Brittannië (3853): zicht: 17.10.2018 13:00:00 - 23.10.2018 13:00:00 (BST)Yeovilton, Groot Brittannië (3853): Zonneschijnduur: 17.10.2018 13:00:00 - 23.10.2018 13:00:00 (BST)Yeovilton, Groot Brittannië (3853): neerslag: 17.10.2018 13:00:00 - 23.10.2018 13:00:00 (BST)
Datum & Tijd tt [°C] td [°C] tt -20cm [°C] tt -100cm [°C] ff [km/u] ff [kn] fx [km/u] fx [kn] dd ppp [hPa] vv [km] sd [min] rr [mm]
23.10.2018 13:00:00 13,9 9,3 - - 31 17 48 26 WNW 1032,5 10 0 0,0
23.10.2018 12:00:00 14,1 9,9 - - 18 10 - - WNW 1033,7 10 0 0,0
23.10.2018 11:00:00 11,4 9,2 - - 13 7 - - W 1033,9 10 6 0,0
23.10.2018 10:00:00 9,8 8,8 13,0 14,0 9 5 - - W 1034,1 10 24 0,0
23.10.2018 09:00:00 6,7 6,3 - - 13 7 - - W 1034,4 10 0 0,0
23.10.2018 08:00:00 6,8 6,3 - - 8 4 - - W 1034,6 10 0 0,0
23.10.2018 07:00:00 6,6 6,5 - - 11 6 - - WZW 1034,8 15 0 0,0
23.10.2018 06:00:00 3,9 3,2 - - 2 1 - - ZW 1035,1 10 0 0,0
23.10.2018 05:00:00 4,9 4,6 - - 5 3 - - ZZW 1035,5 10 0 0,0
23.10.2018 04:00:00 3,2 2,7 - - 4 2 - - OZO 1036,3 10 0 0,0
23.10.2018 03:00:00 2,5 2,0 - - 2 1 - - OZO 1036,8 10 0 0,0
23.10.2018 02:00:00 2,2 1,3 - - 2 1 - - NO 1037,5 10 0 0,0
23.10.2018 01:00:00 2,8 2,1 - - 4 2 - - Z 1038,2 10 - 0,0
23.10.2018 00:00:00 3,2 2,4 - - 5 3 - - W 1039,0 10 0 0,0
22.10.2018 23:00:00 3,0 1,7 - - 2 1 - - OZO 1039,0 10 0 0,0
22.10.2018 22:00:00 4,2 2,6 - - 5 3 - - WNW 1039,3 10 0 0,0
22.10.2018 21:00:00 6,1 4,1 - - 4 2 - - WZW 1039,2 10 0 0,0
22.10.2018 20:00:00 6,5 3,9 - - 9 5 - - WNW 1039,2 10 0 0,0
22.10.2018 19:00:00 8,4 4,1 - - 4 2 - - NNO 1039,0 10 0 0,0
22.10.2018 18:00:00 11,4 5,1 - - 9 5 - - NNW 1038,6 25 36 0,0
22.10.2018 17:00:00 13,0 4,3 - - 16 9 - - N 1038,4 10 60 0,0
22.10.2018 16:00:00 13,3 3,6 - - 22 12 - - N 1038,3 10 60 0,0
22.10.2018 15:00:00 13,0 4,0 - - 21 11 - - N 1038,4 10 60 0,0
22.10.2018 14:00:00 13,1 4,6 - - 22 12 - - N 1039,0 10 60 0,0
22.10.2018 13:00:00 12,6 5,2 - - 26 14 - - N 1038,8 10 60 0,0
22.10.2018 12:00:00 11,9 5,9 - - 26 14 - - N 1038,9 10 60 0,0
22.10.2018 11:00:00 11,1 6,2 - - 18 10 - - N 1039,0 25 60 0,0
22.10.2018 10:00:00 9,2 5,5 14,2 14,2 4 2 - - N 1038,9 10 60 0,0
22.10.2018 09:00:00 5,9 4,7 - - 2 1 - - ZZW 1038,3 10 36 0,0
22.10.2018 08:00:00 4,4 2,0 - - 4 2 - - WNW 1037,6 10 0 0,0
22.10.2018 07:00:00 6,8 3,9 - - 9 5 - - NW 1036,7 10 0 0,0
22.10.2018 06:00:00 7,8 4,8 - - 11 6 - - NNW 1035,8 10 0 0,0
22.10.2018 05:00:00 8,5 5,0 - - 11 6 - - N 1035,2 25 0 0,0
22.10.2018 04:00:00 9,6 5,5 - - 16 9 - - N 1034,7 10 0 0,0
22.10.2018 03:00:00 10,0 5,8 - - 16 9 - - N 1034,2 10 0 0,0
22.10.2018 02:00:00 11,1 6,7 - - 22 12 - - N 1033,9 45 0 0,0
22.10.2018 01:00:00 12,6 7,1 - - 21 11 - - N 1033,0 50 - 0,0
22.10.2018 00:00:00 13,0 7,8 - - 22 12 - - N 1032,2 24 0 0,0
21.10.2018 23:00:00 13,4 8,8 - - 26 14 - - N 1031,5 50 0 0,0
21.10.2018 22:00:00 14,4 12,6 - - 15 8 - - N 1030,4 10 0 0,0
21.10.2018 21:00:00 14,1 12,8 - - 9 5 - - NW 1029,9 10 0 0,0
21.10.2018 20:00:00 13,6 12,2 - - 11 6 - - NW 1029,4 15 0 0,0
21.10.2018 19:00:00 13,7 11,4 - - 13 7 - - NW 1029,0 28 0 0,0
21.10.2018 18:00:00 14,3 11,0 - - 21 11 - - NW 1028,0 30 18 0,0
21.10.2018 17:00:00 15,6 11,1 - - 18 10 - - NW 1027,7 40 60 0,0
21.10.2018 16:00:00 16,4 11,8 - - 15 8 - - NNW 1027,7 30 60 0,0
21.10.2018 15:00:00 17,0 11,3 - - 16 9 - - NW 1027,7 30 60 0,0
21.10.2018 14:00:00 16,7 11,5 - - 11 6 - - WNW 1028,0 21 60 0,0
21.10.2018 13:00:00 15,3 11,9 - - 11 6 - - WNW 1028,5 20 60 0,0
21.10.2018 12:00:00 13,2 11,6 - - 5 3 - - W 1029,0 28 60 0,0
21.10.2018 11:00:00 10,2 10,1 - - 4 2 - - WNW 1029,3 19 60 0,0
21.10.2018 10:00:00 8,1 8,1 14,0 14,2 0 0 - - N 1029,4 0,5 0 0,0
21.10.2018 09:00:00 6,1 6,1 - - 2 1 - - WNW 1029,5 0,1 0 0,2
21.10.2018 08:00:00 5,9 5,8 - - 2 1 - - ZZO 1029,0 0,3 0 0,0
21.10.2018 07:00:00 6,3 6,2 - - 0 0 - - N 1028,9 0,2 0 0,0
21.10.2018 06:00:00 6,7 6,6 - - 5 3 - - ZO 1029,0 0,1 0 0,0
21.10.2018 05:00:00 6,7 6,5 - - 4 2 - - ZZO 1029,3 0,1 0 0,0
21.10.2018 04:00:00 6,9 6,7 - - 0 0 - - N 1029,5 0,1 0 0,0
21.10.2018 03:00:00 7,3 7,1 - - 2 1 - - OZO 1030,1 - 0 0,0
21.10.2018 02:00:00 7,3 7,0 - - 0 0 - - N 1030,3 0,1 0 0,0
21.10.2018 01:00:00 7,0 6,7 - - 5 3 - - ZO 1030,8 0,2 - 0,0
21.10.2018 00:00:00 7,4 7,1 - - 2 1 - - ZZO 1031,0 0,1 0 0,0
20.10.2018 23:00:00 7,7 7,1 - - 2 1 - - ZO 1031,1 0,1 0 0,0
20.10.2018 22:00:00 8,9 8,2 - - 4 2 - - Z 1031,4 5 0 0,0
20.10.2018 21:00:00 9,9 8,8 - - 4 2 - - OZO 1031,5 10 0 0,0
20.10.2018 20:00:00 11,4 9,5 - - 2 1 - - WZW 1031,4 12 0 0,0
20.10.2018 19:00:00 12,8 10,2 - - 2 1 - - WZW 1031,2 26 0 0,0
20.10.2018 18:00:00 14,6 11,2 - - 15 8 - - NNW 1031,0 13 12 0,0
20.10.2018 17:00:00 17,3 12,2 - - 8 4 - - W 1030,7 10 60 0,0
20.10.2018 16:00:00 17,7 11,7 - - 8 4 - - W 1030,8 10 60 0,0
20.10.2018 15:00:00 18,2 12,1 - - 5 3 - - W 1031,1 10 60 0,0
20.10.2018 14:00:00 16,6 11,6 - - 2 1 - - W 1031,7 10 60 0,0
20.10.2018 13:00:00 16,0 12,8 - - 2 1 - - NNW 1032,3 19 60 0,0
20.10.2018 12:00:00 13,1 13,1 - - 2 1 - - WZW 1032,9 10 42 0,0
20.10.2018 11:00:00 10,0 9,9 - - 4 2 - - OZO 1033,1 6 6 0,2
20.10.2018 10:00:00 8,2 8,1 13,9 14,4 4 2 - - ZZO 1032,7 0,3 24 0,0
20.10.2018 09:00:00 7,1 7,0 - - 4 2 - - ZO 1032,2 2,5 0 0,0
20.10.2018 08:00:00 7,0 6,9 - - 8 4 - - ZZO 1031,8 1,5 0 0,0
20.10.2018 07:00:00 7,7 7,6 - - 2 1 - - O 1031,7 - 0 0,0
20.10.2018 06:00:00 7,1 6,9 - - 5 3 - - Z 1030,9 - 0 0,0
20.10.2018 05:00:00 6,4 6,2 - - 5 3 - - ZZO 1030,3 0,1 0 0,0
20.10.2018 04:00:00 5,5 5,3 - - 4 2 - - ZO 1029,9 7 0 0,0
20.10.2018 03:00:00 4,2 3,8 - - 4 2 - - ZZO 1029,9 5 0 0,0
20.10.2018 02:00:00 4,9 4,5 - - 8 4 - - ZO 1029,7 5 0 0,0
20.10.2018 01:00:00 4,7 4,1 - - 2 1 - - O 1030,1 10 - 0,0
20.10.2018 00:00:00 5,8 5,4 - - 4 2 - - ZO 1029,6 4,2 0 0,0
19.10.2018 23:00:00 6,0 5,2 - - 2 1 - - WNW 1029,4 10 0 0,0
19.10.2018 22:00:00 6,7 5,5 - - 4 2 - - OZO 1028,8 10 0 0,0
19.10.2018 21:00:00 8,1 6,8 - - 4 2 - - ZO 1028,6 17 0 0,0
19.10.2018 20:00:00 9,3 7,3 - - 4 2 - - NO 1028,7 30 0 0,0
19.10.2018 19:00:00 11,5 7,9 - - 4 2 - - W 1027,7 10 0 0,0
19.10.2018 18:00:00 14,5 8,2 - - 9 5 - - NW 1027,3 35 42 0,0
19.10.2018 17:00:00 16,4 8,8 - - 5 3 - - NW 1026,6 10 60 0,0
19.10.2018 16:00:00 15,9 8,7 - - 11 6 - - N 1026,6 10 48 0,0
19.10.2018 15:00:00 15,7 8,5 - - 8 4 - - N 1026,4 10 60 0,0
19.10.2018 14:00:00 15,0 8,6 - - 2 1 - - W 1026,6 10 60 0,0
19.10.2018 13:00:00 14,0 8,7 - - 4 2 - - W 1027,0 30 60 0,0
19.10.2018 12:00:00 11,2 9,9 - - 2 1 - - NNW 1027,1 30 60 0,0
19.10.2018 11:00:00 8,5 8,5 - - 2 1 - - ZZO 1026,8 16 30 0,0
19.10.2018 10:00:00 4,8 4,7 14,2 14,5 4 2 - - W 1027,3 0,3 0 0,0
19.10.2018 09:00:00 4,1 3,9 - - 4 2 - - W 1026,7 5 12 0,0
19.10.2018 08:00:00 3,1 2,9 - - 4 2 - - OZO 1026,6 0,3 0 0,0
19.10.2018 07:00:00 3,2 3,0 - - 2 1 - - ZW 1026,4 0,1 0 0,0
19.10.2018 06:00:00 3,3 3,0 - - 2 1 - - ZZO 1026,2 0,2 0 0,0
19.10.2018 05:00:00 3,6 3,4 - - 2 1 - - WNW 1026,5 0,6 0 0,0
19.10.2018 04:00:00 3,9 3,7 - - 0 0 - - N 1026,1 0,1 0 0,0
19.10.2018 03:00:00 4,7 4,3 - - 2 1 - - O 1026,4 8 0 0,0
19.10.2018 02:00:00 5,2 4,8 - - 2 1 - - WZW 1026,6 1,5 0 0,0
19.10.2018 01:00:00 5,9 5,4 - - 4 2 - - NW 1026,8 4,0 - 0,0
19.10.2018 00:00:00 7,0 6,3 - - 5 3 - - WNW 1026,6 9 0 0,0
18.10.2018 23:00:00 7,1 6,5 - - 4 2 - - NNO 1026,6 14 0 0,0
18.10.2018 22:00:00 7,7 6,6 - - 2 1 - - NNW 1026,5 11 0 0,0
18.10.2018 21:00:00 9,0 7,3 - - 2 1 - - ONO 1026,6 16 0 0,0
18.10.2018 20:00:00 9,7 7,2 - - 8 4 - - NNO 1026,5 20 0 0,0
18.10.2018 19:00:00 11,8 8,4 - - 5 3 - - NNO 1026,2 10 0 0,0
18.10.2018 18:00:00 12,8 8,8 - - 11 6 - - NNO 1025,9 10 48 0,0
18.10.2018 17:00:00 14,4 9,3 - - 16 9 - - NO 1026,0 10 54 0,0
18.10.2018 16:00:00 14,2 9,4 - - 21 11 - - NNO 1026,2 10 60 0,0
18.10.2018 15:00:00 14,4 9,6 - - 18 10 - - NNO 1026,4 10 60 0,0
18.10.2018 14:00:00 13,8 9,9 - - 18 10 - - NO 1026,8 10 60 0,0
18.10.2018 13:00:00 13,1 9,5 - - 21 11 - - NNO 1027,3 15 60 0,0
18.10.2018 12:00:00 12,7 9,1 - - 18 10 - - NO 1027,7 10 60 0,0
18.10.2018 11:00:00 11,8 8,9 - - 16 9 - - NNO 1027,9 10 60 0,0
18.10.2018 10:00:00 10,9 8,4 15,2 14,5 18 10 - - NO 1027,7 10 60 0,0
18.10.2018 09:00:00 10,3 8,3 - - 8 4 - - NNO 1027,5 10 36 0,0
18.10.2018 08:00:00 9,0 7,4 - - 9 5 - - NNO 1026,7 10 0 0,0
18.10.2018 07:00:00 9,1 7,3 - - 13 7 - - NO 1026,2 15 0 0,0
18.10.2018 06:00:00 9,6 7,6 - - 9 5 - - NNO 1025,9 10 0 0,0
18.10.2018 05:00:00 11,2 8,8 - - 13 7 - - N 1025,8 15 0 0,0
18.10.2018 04:00:00 11,9 9,3 - - 16 9 - - NNO 1025,8 10 0 0,0
18.10.2018 03:00:00 12,3 9,6 - - 16 9 - - N 1025,6 10 0 0,0
18.10.2018 02:00:00 12,8 9,9 - - 15 8 - - NNO 1025,3 10 0 0,0
18.10.2018 01:00:00 13,2 10,3 - - 16 9 - - NNO 1025,1 10 - 0,0
18.10.2018 00:00:00 13,7 10,5 - - 16 9 - - NO 1024,8 10 0 0,0
17.10.2018 23:00:00 14,1 10,8 - - 15 8 - - N 1024,4 10 0 0,0
17.10.2018 22:00:00 14,3 11,0 - - 9 5 - - N 1023,8 20 0 0,0
17.10.2018 21:00:00 13,9 11,8 - - 5 3 - - N 1023,1 10 0 0,0
17.10.2018 20:00:00 14,3 11,0 - - 5 3 - - N 1022,3 10 0 0,0
17.10.2018 19:00:00 14,3 11,8 - - 8 4 - - NW 1021,7 10 0 0,0
17.10.2018 18:00:00 14,5 11,9 - - 5 3 - - NNO 1020,9 10 0 0,0
17.10.2018 17:00:00 14,7 12,1 - - 8 4 - - NNO 1020,3 10 0 0,0
17.10.2018 16:00:00 14,5 11,7 - - 8 4 - - O 1020,0 10 0 0,0
17.10.2018 15:00:00 13,3 11,6 - - 9 5 - - NNW 1019,9 8 0 0,0
17.10.2018 14:00:00 14,2 12,5 - - 5 3 - - O 1019,6 10 0 0,0
17.10.2018 13:00:00 13,8 12,5 - - 11 6 - - O 1019,6 5 0 0,0

tt = temperatuur
td = dauwpunt
tt -20cm = temperatuur -20cm
tt -100cm = temperatuur -100cm
ff = windsnelheid
fx = windstoten
dd = windrichting
ppp = luchtdruk
vv = zicht
sd = Zonneschijnduur
rr = neerslag

Weerstations in de omgeving